Volver al catálogo

ARIANE 5 DEB

SYLDA

ActivoHEO
NORAD 42817·DEBRIS·🇫🇷 France

Lanzado Jun 28, 2017 desde Guiana Space Centre

Loading…

Próximos Pases (próximas 24 horas)

TLE

ActualizadoSource: Space-Track

Época: Sep 14, 2026, 13:40 UTC

1 42817U 17040D   26257.57003702  .00175988  00000-0  49322-2 0  9990
2 42817   2.8277 245.5359 5454199 159.8980 234.4165  4.98028140115109

Sigue ARIANE 5 DEB en tiempo real con AllMySat

Download on the App Store